When you browse on this site, cookies collect data to enhance your experience and personalize the content and advertising you see.
Visit our Privacy Policy to learn more. By continuing to use the site, you agree to this use of cookies and data.
  • In Romania
  • List of Countries
  • For 7 days
  • Water Temperature
  • Satellite Maps
  • Weather Map
  • Weather Widgets
  • user-avatar
    Login

    Hourly Weather Nizwa

    Today, 21 July, Sunday

    Time Temperature Precipitation Wind Pressure Humidity
    00:00 +30°C° 0 mm 2 mps 688 mmHg 55%
    01:00 +29°C° 0 mm 1 mps 688 mmHg 57%
    02:00 +29°C° 0 mm 1 mps 688 mmHg 59%
    03:00 +28°C° 0 mm 1 mps 688 mmHg 61%
    04:00 +28°C° 0 mm 1 mps 687 mmHg 62%
    05:00 +28°C° 0 mm 1 mps 688 mmHg 61%
    06:00 +29°C° 0 mm 1 mps 689 mmHg 61%
    07:00 +29°C° 0 mm 1 mps 689 mmHg 60%
    08:00 +32°C° 0 mm 1 mps 690 mmHg 51%
    09:00 +34°C° 0 mm 1 mps 690 mmHg 42%
    10:00 +37°C° 0 mm 1 mps 690 mmHg 33%
    11:00 +39°C° 0 mm 2 mps 690 mmHg 29%
    12:00 +41°C° 0 mm 2 mps 690 mmHg 25%
    13:00 +43°C° 0 mm 2 mps 690 mmHg 21%
    14:00 +44°C° 0 mm 3 mps 689 mmHg 21%
    15:00 +44°C° 0 mm 4 mps 689 mmHg 21%
    16:00 +44°C° 0 mm 4 mps 688 mmHg 21%
    17:00 +42°C° 0.2 mm 5 mps 688 mmHg 26%
    18:00 +39°C° 0.2 mm 5 mps 688 mmHg 32%
    19:00 +36°C° 0.2 mm 6 mps 688 mmHg 37%
    20:00 +34°C° 0 mm 5 mps 688 mmHg 44%
    21:00 +32°C° 0 mm 4 mps 688 mmHg 51%
    22:00 +29°C° 0 mm 3 mps 689 mmHg 57%
    23:00 +29°C° 0 mm 3 mps 688 mmHg 61%

    Tomorrow, 22 July, Monday

    Time Temperature Precipitation Wind Pressure Humidity
    00:00 +28°C° 0 mm 2 mps 688 mmHg 64%
    01:00 +27°C° 0 mm 2 mps 688 mmHg 68%
    02:00 +27°C° 0 mm 1 mps 687 mmHg 67%
    03:00 +27°C° 0 mm 1 mps 687 mmHg 66%
    04:00 +28°C° 0 mm 1 mps 687 mmHg 65%
    05:00 +28°C° 0 mm 1 mps 687 mmHg 63%
    06:00 +28°C° 0 mm 1 mps 688 mmHg 61%
    07:00 +29°C° 0 mm 1 mps 688 mmHg 60%
    08:00 +31°C° 0 mm 1 mps 689 mmHg 52%
    09:00 +34°C° 0 mm 2 mps 689 mmHg 45%
    10:00 +36°C° 0 mm 2 mps 689 mmHg 37%
    11:00 +38°C° 0 mm 2 mps 689 mmHg 33%
    12:00 +40°C° 0 mm 3 mps 689 mmHg 29%
    13:00 +42°C° 0 mm 3 mps 689 mmHg 25%
    14:00 +42°C° 0 mm 3 mps 688 mmHg 24%
    15:00 +43°C° 0 mm 4 mps 688 mmHg 23%
    16:00 +43°C° 0 mm 4 mps 687 mmHg 22%
    17:00 +41°C° 0 mm 4 mps 687 mmHg 26%
    18:00 +40°C° 0 mm 4 mps 687 mmHg 31%
    19:00 +37°C° 0 mm 4 mps 687 mmHg 35%
    20:00 +35°C° 0 mm 4 mps 687 mmHg 42%
    21:00 +33°C° 0 mm 4 mps 687 mmHg 49%
    22:00 +30°C° 0 mm 4 mps 687 mmHg 56%
    23:00 +29°C° 0 mm 3 mps 687 mmHg 59%

    Day after tomorrow, 23 July, Tuesday

    Time Temperature Precipitation Wind Pressure Humidity
    00:00 +28°C° 0 mm 3 mps 687 mmHg 63%
    01:00 +28°C° 0 mm 2 mps 686 mmHg 67%
    02:00 +27°C° 0 mm 2 mps 686 mmHg 68%
    03:00 +27°C° 0 mm 2 mps 686 mmHg 70%
    04:00 +26°C° 0 mm 2 mps 686 mmHg 71%
    05:00 +27°C° 0 mm 2 mps 686 mmHg 70%
    06:00 +27°C° 0 mm 2 mps 687 mmHg 68%
    07:00 +27°C° 0 mm 2 mps 687 mmHg 67%
    08:00 +30°C° 0 mm 2 mps 688 mmHg 58%
    09:00 +32°C° 0 mm 2 mps 688 mmHg 49%
    10:00 +35°C° 0 mm 3 mps 689 mmHg 40%
    11:00 +37°C° 0 mm 3 mps 688 mmHg 35%
    12:00 +40°C° 0 mm 4 mps 688 mmHg 30%
    13:00 +42°C° 0 mm 4 mps 688 mmHg 25%
    14:00 +42°C° 0 mm 4 mps 688 mmHg 25%
    15:00 +42°C° 0 mm 5 mps 687 mmHg 25%
    16:00 +42°C° 0 mm 5 mps 687 mmHg 25%
    17:00 +40°C° 0 mm 5 mps 687 mmHg 31%
    18:00 +38°C° 0 mm 6 mps 687 mmHg 37%
    19:00 +35°C° 0 mm 6 mps 687 mmHg 42%
    20:00 +33°C° 0 mm 5 mps 687 mmHg 49%
    21:00 +30°C° 0 mm 5 mps 687 mmHg 56%
    22:00 +29°C° 0 mm 4 mps 687 mmHg 63%
    23:00 +28°C° 0 mm 4 mps 687 mmHg 67%

    24 July, Wednesday

    Time Temperature Precipitation Wind Pressure Humidity
    00:00 +27°C° 0 mm 3 mps 687 mmHg 70%
    01:00 +26°C° 0 mm 3 mps 687 mmHg 74%
    02:00 +26°C° 0 mm 3 mps 686 mmHg 75%
    03:00 +26°C° 0 mm 2 mps 686 mmHg 75%
    04:00 +26°C° 0 mm 2 mps 686 mmHg 76%
    05:00 +26°C° 0 mm 2 mps 686 mmHg 74%
    06:00 +26°C° 0 mm 2 mps 687 mmHg 72%
    07:00 +27°C° 0 mm 2 mps 687 mmHg 70%
    08:00 +29°C° 0 mm 3 mps 688 mmHg 63%
    09:00 +30°C° 0 mm 3 mps 688 mmHg 55%
    10:00 +33°C° 0 mm 4 mps 689 mmHg 48%
    11:00 +35°C° 0 mm 4 mps 688 mmHg 42%
    12:00 +37°C° 0 mm 4 mps 688 mmHg 37%
    13:00 +40°C° 0 mm 5 mps 688 mmHg 32%
    14:00 +40°C° 0 mm 5 mps 688 mmHg 32%
    15:00 +40°C° 0 mm 5 mps 687 mmHg 32%
    16:00 +40°C° 0 mm 5 mps 687 mmHg 32%
    17:00 +37°C° 0.2 mm 5 mps 687 mmHg 35%
    18:00 +36°C° 0.2 mm 5 mps 687 mmHg 39%
    19:00 +34°C° 0.2 mm 5 mps 687 mmHg 42%
    20:00 +33°C° 0 mm 4 mps 687 mmHg 50%
    21:00 +30°C° 0 mm 4 mps 687 mmHg 57%
    22:00 +28°C° 0 mm 4 mps 687 mmHg 64%
    23:00 +28°C° 0 mm 4 mps 687 mmHg 69%

    25 July, Thursday

    Time Temperature Precipitation Wind Pressure Humidity
    00:00 +27°C° 0 mm 3 mps 687 mmHg 73%
    01:00 +26°C° 0 mm 3 mps 686 mmHg 78%
    02:00 +26°C° 0 mm 3 mps 686 mmHg 78%
    03:00 +26°C° 0 mm 2 mps 686 mmHg 78%
    04:00 +26°C° 0 mm 2 mps 686 mmHg 78%
    05:00 +26°C° 0 mm 2 mps 687 mmHg 76%
    06:00 +26°C° 0 mm 2 mps 687 mmHg 74%
    07:00 +26°C° 0 mm 1 mps 687 mmHg 72%
    08:00 +28°C° 0 mm 2 mps 688 mmHg 65%
    09:00 +30°C° 0 mm 2 mps 688 mmHg 58%
    10:00 +32°C° 0 mm 2 mps 689 mmHg 51%
    11:00 +34°C° 0 mm 3 mps 689 mmHg 46%
    12:00 +36°C° 0 mm 3 mps 688 mmHg 40%
    13:00 +38°C° 0 mm 4 mps 688 mmHg 35%
    14:00 +40°C° 0 mm 4 mps 688 mmHg 33%
    15:00 +40°C° 0 mm 4 mps 687 mmHg 31%
    16:00 +41°C° 0 mm 4 mps 687 mmHg 29%
    17:00 +40°C° 0 mm 4 mps 687 mmHg 30%
    18:00 +40°C° 0 mm 4 mps 687 mmHg 31%
    19:00 +38°C° 0 mm 3 mps 687 mmHg 32%
    20:00 +36°C° 0 mm 3 mps 687 mmHg 37%
    21:00 +35°C° 0 mm 3 mps 687 mmHg 41%
    22:00 +33°C° 0 mm 3 mps 687 mmHg 46%
    23:00 +31°C° 0 mm 3 mps 687 mmHg 50%

    26 July, Friday

    Time Temperature Precipitation Wind Pressure Humidity
    00:00 +30°C° 0 mm 3 mps 686 mmHg 54%
    01:00 +29°C° 0 mm 2 mps 686 mmHg 58%
    02:00 +29°C° 0 mm 2 mps 686 mmHg 60%
    03:00 +28°C° 0 mm 2 mps 686 mmHg 63%
    04:00 +28°C° 0 mm 2 mps 686 mmHg 65%
    05:00 +28°C° 0 mm 1 mps 686 mmHg 65%
    06:00 +28°C° 0 mm 1 mps 687 mmHg 64%
    07:00 +28°C° 0 mm 1 mps 687 mmHg 64%
    08:00 +30°C° 0 mm 2 mps 688 mmHg 57%
    09:00 +32°C° 0 mm 2 mps 688 mmHg 50%
    10:00 +35°C° 0 mm 2 mps 688 mmHg 43%
    11:00 +36°C° 0 mm 3 mps 688 mmHg 38%
    12:00 +38°C° 0 mm 3 mps 687 mmHg 32%
    13:00 +41°C° 0 mm 4 mps 687 mmHg 27%
    14:00 +42°C° 0 mm 4 mps 687 mmHg 26%
    15:00 +42°C° 0 mm 4 mps 687 mmHg 25%
    16:00 +43°C° 0 mm 4 mps 686 mmHg 24%
    17:00 +42°C° 0 mm 4 mps 686 mmHg 24%
    18:00 +40°C° 0 mm 3 mps 686 mmHg 25%
    19:00 +40°C° 0 mm 3 mps 686 mmHg 26%
    20:00 +38°C° 0 mm 3 mps 686 mmHg 31%
    21:00 +37°C° 0 mm 3 mps 686 mmHg 35%
    22:00 +35°C° 0 mm 3 mps 687 mmHg 39%
    23:00 +34°C° 0 mm 3 mps 686 mmHg 45%
    Show more